Погода в Уеге

Погода в Уеге : погода сейчас, прогноз погоды и архив. Всё, что Вы хотите узнать о погоде в Уеге!

Поиск расширенной информации на нашем сайте:

Другие новости

Новости СМИ2

Главная страница сайта

Новости сайта

03.07.2017

Напоминаем, что на нашем специализированном сайте Метеоцентр.Азия вы можете получить высокодетализированные автоматические прогнозы погоды по пунктам России, СНГ и мира в авиационном формате (включающие направление и скорость ветра, видимость, явления погоды, количество и форму облачности, нижнюю и верхнюю границу облачности).

Рекомендуем: Полезные советы для девушек и женщин http://best-womens.ru

Погода в Уеге - сегодня

Время (UTC), дата Ветер
(°,м/с) 
Видим.   Явления Облачность Т
(°С)
Тd
(°С)
f(%) Тe
(°С)
Pmin
(гПа)
dP
(гПа)
Po
(мм)
O2
(г/м3)
Тmin Tmax R s Состояние
почвы
06 21.11.17 350 (С) 10 км  слаб. снег  10/6 1000 м верхняя 
[Sc|Cs]
-19.5 -21.3 86 -20  996.4  0.2  709  309           
09 21.11.17 360 (С) 4000 м  слаб. снег  10/4 1000 м верхняя 
[Sc|Cs]
-20.2 -23 78 -25  996.7  0.1  709  310    -16.2  0.5     
12 21.11.17 340 (С) 20000 м  в посл. час снег  10/3 1000 м верхняя 
[Sc|Cs]
-21.9 -25.5 73 -25  997.6  0.4  709  312           
15 21.11.17 340 (С) 10 км  слаб. снег  10/3 1000 м верхняя 
[Sc|Cs]
-27.4 -30.1 78 -28  999.3  0.5  709  319           
18 21.11.17 310 (СЗ) 10 км  слаб. снег  10/3 1000 м верхняя 
[Sc|Cs]
-30.5 -33.5 75 -31  1000.7  0.7  710  324           
21 21.11.17 290 (З) 20000 м  {снег}  10/3 1000 м верхняя 
[Sc|Cs]
-35.2 -38.7 70 -36  1002.7  0.8  710  331  -35.2    0.6  12  равномерный
сухой снег
100% 
00 22.11.17 тихо ()   20000 м  {снег}  10/3 1000 м средняя, верхняя 
[Sc|Ac trans|Cs]
-32.8 -36.2 71 -33  1003.5  1.3  711  328  -35.6         
03 22.11.17 тихо ()   20000 м    9/0 средняя, верхняя 
[Ac trans|Ci fib]
-26.5 -30.2 71 -27  1003  0.9  712  320           
06 22.11.17 тихо ()   20000 м    8/0 средняя, верхняя 
[Ac trans|Ci fib]
-31 -34.5 71 -31  1005.5  1.3  713  326           
09 22.11.17 320 (СЗ) 10 км  слаб. снег  10/0 верхняя 
[Cs]
-33.6 -37.2 70 -35  1008.1  1.9  715  330    -25.1  0.0     
12 22.11.17 340 (С) 20000 м  {снег}  10/0 верхняя 
[Cs]
-35.3 -38.8 70 -36  1010.2  1.6  716  333           
15 22.11.17 тихо ()   20000 м    10/3 1000 м верхняя 
[Sc|Cs]
-32.6 -36 72 -33  1011.2  1.6  717  330           
18 22.11.17 тихо ()   20000 м    8/0 верхняя 
[Ci fib]
-37.6 -41.4 67 -38  1013.9  1.4  718  338           
21 22.11.17 350 (С) 20000 м    8/0 верхняя 
[Ci fib]
-39 -41.8 75 -40  1015.8  1.5  719  340  -39    0.2  12  равномерный
сухой снег
100% 
00 23.11.17 330 (СЗ) 20000 м    6/4 1000 м верхняя 
[Sc|Ci fib]
-36.2 -39.7 70 -37  1017  1.7  720  337           
03 23.11.17 360 (С) 20000 м    ясно 
-25.8 -30.8 63 -29  1014.4  -0.3  720  322           
06 23.11.17 350 (С) 20000 м    ясно 
-29.9 -34.2 66 -31  1016.5  1.1  721  328           
09 23.11.17 350 (С) 20000 м    ясно 
-30 -33.8 69 -34  1016.8  0.3  721  328    -25.4       
12 23.11.17 350 (С) 20000 м    ясно 
-29.8 -33.9 68 -33  1016.9  0.1  721  328           
15 23.11.17 010 (С) 20000 м    5/0 верхняя 
[Ci fib]
-29.7 -34.2 65 -33  1016  -0.8  721  328           
18 23.11.17 010 (С) 20000 м    5/0 верхняя 
[Ci fib]
-29.4 -34.4 62 -33  1014.9  -1  720  327           
21 23.11.17 010 (С) 20000 м    6/0 верхняя 
[Ci fib]
-28.3 -33.9 59 -34  1012.7  -1.9  719  325  -30.6      12  равномерный
сухой снег
100% 
00 24.11.17 020 (С) 20000 м    ясно 
-27.2 -33.6 55 -32  1011.3  -1.1  718  323           
03 24.11.17 350 (С) 5{11}  20000 м  позёмок  ясно 
-23.4 -32.3 44 -30  1007.1  -3.2  716  317           
06 24.11.17 360 (С) 4-10{12}  20000 м  позёмок  4/0 средняя, верхняя 
[Ac trans|Ci fib]
-23.5 -32.6 43 -30  1003.1  -3.7  713  316           
Время (UTC), дата Ветер
(°,м/с) 
Видим.   Явления Облачность Т
(°С)
Тd
(°С)
f(%) Тe
(°С)
Pmin
(гПа)
dP
(гПа)
Po
(мм)
O2
(г/м3)
Тmin Tmax R s Состояние
почвы

Для получения пояснительной информации подведите курсор к названию столбца.

ПОГОДА в Уеге - архив

Всё, что Вы хотите узнать о погоде в Уеге - удобно и подробно!

Выберите нужную дату (начиная с 1 января 2015* года) и нажмите кнопку "Найти".
Будут отображены архивные сводки погоды по пункту Уега, начиная с указанной даты.


Отображать данные в формате CSV (для использования в таблицах Excel)


Внимание! Наш архив погоды предназначен исключительно для личного некоммерческого использования в познавательных целях. Если Вам необходимы официальные справки о состоянии погоды (для производственных, юридических, коммерческих и т.п. целей), обращайтесь в органы Росгидромета.

*Примечание: данная дата относится к архиву по метеостанциям СССР (Россия, СНГ, Балтия).
Архив по метеостанциям Зарубежной Европы и Азии (кроме Китая) хранится 10 дней, по другим регионам земного шара (Китай, Африка, Америка, Австралия, Океания) - 1 день.

Уега - район местоположения метеостанции


Название, широта, долгота, высота метеостанции:
Уега 60.7°ш. 142.8°д. 398 м над ур. моря [Российская Федерация]

Дополнительная информация

В oтличие oт бoльшинства пoгoдных сайтoв мы публикуем пoдрoбную метеoинфoрмацию в детальнoм прoфессиoнальнoм фoрмате.

Характеристики температуры и влажнoсти вoздуха измеряются на высoте 2 м в тени вдали oт зданий и деревьев.
Скoрoсть ветра измеряется на высoте 10 м (на урoвне рoста челoвека скoрoсть ветра ниже в 1.5-2 раза). Если метеoстанция нахoдится в гoрoде или в лесу, тo скoрoсть ветра занижена на 2-4 м/с пo сравнению с oткрытым местoм. Скoрoсть ветра над акватoриями крупных рек и oзёр, а также на вершинах хoлмoв на 2-5 м/с выше, чем в oбычных услoвиях.
Атмoсфернoе давление в разных тoчках местнoсти мoжет значительнo oтличаться oт давления на метеoстанции, в зависимoсти oт услoвий рельефа (при пoдъёме на 10 м давление пoнижается примернo на 1 мм рт.ст.).